TA3NHM-2 Weather Reports


time (UTC)temp
C
wind
direction
speed
KPH
gust
KPH
rain 1hr
cm
rain 24hr
cm
rain mn
cm
humidity
%
barometer
mb
20260902062242 25 0 0.0 0.0 0.00 0.00 0.00 38 1002.8
20260902052320 25 0 0.0 0.0 0.00 0.00 0.00 37 1002.8
20260902042359 24 0 0.0 0.0 0.00 0.00 0.00 36 1002.4
20260902032458 24 0 0.0 0.0 0.00 0.00 0.00 39 1001.9
20260902022542 25 0 0.0 0.0 0.00 0.00 0.00 37 1001.7
20260902012627 25 0 0.0 0.0 0.00 0.00 0.00 37 1001.6
20260902002705 25 0 0.0 0.0 0.00 0.00 0.00 36 1001.5
20260901232752 26 0 0.0 0.0 0.00 0.00 0.00 33 1001.4
20260901222842 26 0 0.0 0.0 0.00 0.00 0.00 32 1001.5
20260901212925 26 0 0.0 0.0 0.00 0.00 0.00 31 1001.4
20260901203016 27 0 0.0 0.0 0.00 0.00 0.00 29 1001.4
20260901193103 27 0 0.0 0.0 0.00 0.00 0.00 30 1001.2
20260901183146 27 0 0.0 0.0 0.00 0.00 0.00 31 1001.1
20260901173231 28 0 0.0 0.0 0.00 0.00 0.00 28 1000.2
20260901163316 30 0 0.0 0.0 0.00 0.00 0.00 29 999.3
20260901153409 32 0 0.0 0.0 0.00 0.00 0.00 27 998.6
20260901143458 34 0 0.0 0.0 0.00 0.00 0.00 26 998.2
20260901133603 36 0 0.0 0.0 0.00 0.00 0.00 23 998.5
20260901123701 35 0 0.0 0.0 0.00 0.00 0.00 27 998.9
20260901113733 33 0 0.0 0.0 0.00 0.00 0.00 28 999.8
20260901103802 31 0 0.0 0.0 0.00 0.00 0.00 35 1000.5
20260901093835 30 0 0.0 0.0 0.00 0.00 0.00 41 1001.0
20260901083909 28 0 0.0 0.0 0.00 0.00 0.00 46 1001.3